Date,TemperatureHighF,TemperatureAvgF,TemperatureLowF,DewpointHighF,DewpointAvgF,DewpointLowF,HumidityHigh,HumidityAvg,HumidityLow,PressureMaxIn,PressureMinIn,WindSpeedMaxMPH,WindSpeedAvgMPH,GustSpeedMaxMPH,PrecipitationSumIn
2013-4-1,28.2,24.6,20.6,21.6,16.6,7.8,91,72,52,30.11,29.76,0,0,0,0.01
2013-4-2,32.4,26.8,19.5,18.3,13.6,7.4,74,58,47,30.29,30.07,0,0,0,0.00
2013-4-3,37.5,28.2,19.4,17.5,13.4,9.7,71,54,33,30.46,30.28,0,0,0,0.00
2013-4-4,47.1,35.2,25.3,35.0,22.1,7.1,94,62,36,30.30,29.95,0,0,0,0.06
2013-4-5,35.0,31.3,26.3,28.2,19.6,13.3,81,62,47,30.26,30.04,0,0,0,0.00
2013-4-6,43.2,32.7,24.8,30.4,24.9,16.0,87,73,55,30.24,29.57,0,0,0,0.11
2013-4-7,47.4,38.3,29.5,45.2,32.7,26.1,96,81,54,30.06,29.42,0,0,0,0.22
2013-4-8,41.6,34.2,26.0,37.2,31.3,24.3,96,89,69,30.05,29.79,0,0,0,0.29
2013-4-9,41.6,36.4,32.7,38.2,35.1,30.9,98,95,86,30.13,30.01,0,0,0,0.28
2013-4-10,40.3,35.5,32.4,33.7,31.0,23.8,97,84,61,30.16,30.07,0,0,0,0.30
2013-4-11,35.6,32.5,29.3,26.7,22.9,18.2,89,68,52,30.13,29.82,0,0,0,0.01
2013-4-12,35.9,31.9,28.5,33.0,29.1,25.4,96,90,85,29.83,29.62,0,0,0,0.32
2013-4-13,36.8,33.3,30.7,33.7,29.9,24.4,97,88,66,29.93,29.70,0,0,0,0.64
2013-4-14,45.7,36.3,25.3,30.9,25.8,22.8,93,68,42,30.09,29.93,0,0,0,0.03
2013-4-15,51.9,45.8,37.9,51.2,40.8,27.5,98,83,65,29.93,29.74,0,0,0,0.28
2013-4-16,48.6,40.8,34.0,41.0,30.7,27.9,88,68,47,30.34,29.87,0,0,0,0.00
2013-4-17,49.6,38.4,26.7,34.4,30.3,25.0,96,74,49,30.42,30.10,0,0,0,0.04
2013-4-18,48.3,42.8,36.9,47.2,41.2,34.0,98,94,84,30.10,29.35,0,0,0,0.62
2013-4-19,54.7,38.6,27.0,54.4,32.0,16.5,99,77,60,29.69,29.22,0,0,0,0.15
2013-4-20,33.8,27.6,23.8,23.7,18.2,14.0,90,68,49,30.48,29.69,0,0,0,0.03
2013-4-21,50.1,34.6,18.0,26.6,17.2,9.4,89,55,22,30.64,30.37,0,0,0,0.00
2013-4-22,65.5,46.7,36.5,32.7,28.9,25.5,79,52,26,30.37,30.12,0,0,0,0.00
2013-4-23,58.0,43.2,32.5,46.1,35.1,29.4,97,75,51,30.12,29.85,0,0,0,0.35
2013-4-24,45.7,36.7,31.8,31.6,27.4,20.1,95,71,37,30.01,29.91,0,0,0,0.09
2013-4-25,47.1,38.9,31.9,34.5,28.8,23.4,85,68,42,30.28,29.91,0,0,0,0.02
2013-4-26,63.7,47.4,31.0,39.8,30.9,25.8,82,56,29,30.36,30.15,0,0,0,0.00
2013-4-27,72.3,59.0,46.0,48.8,44.4,38.4,80,61,31,30.21,30.07,0,0,0,0.07
2013-4-28,75.8,53.8,37.3,46.6,39.2,33.1,97,65,23,30.08,29.79,0,0,0,0.00
2013-4-29,64.8,55.4,47.7,56.3,50.7,45.5,98,85,61,29.86,29.81,0,0,0,0.11
2013-4-30,75.1,62.4,49.5,58.9,55.0,48.9,99,79,52,29.91,29.74,0,0,0,0.28